Overview Statistics Trail Chart Weather Telemetry Raw packets
 

This is the latest recevied weather packets stored in our database for station/object SV9TNF-54. If no packets are shown the sender has not sent any weather packets the latest 10 day(s).

<< 64 65 66 67 68 69 70 >>
Time Temp. Humidity Pressure Rain* Wind** Luminosity Snow
1788183169 30.56° C 55% 1013.9 hPa 0 mm 4.92 m/s, 146° - -
1788182869 30.56° C 55% 1013.9 hPa 0 mm 4.92 m/s, 146° - -
1788182569 30.56° C 55% 1013.9 hPa 0 mm 4.92 m/s, 146° - -
1788182269 30.56° C 55% 1013.9 hPa 0 mm 4.92 m/s, 146° - -
1788181969 30° C 57% 1013.9 hPa 0 mm 17.88 m/s, 102° - -
1788181669 30° C 57% 1013.9 hPa 0 mm 17.88 m/s, 102° - -
1788181369 30° C 57% 1013.9 hPa 0 mm 17.88 m/s, 102° - -
1788181069 30° C 53% 1013.9 hPa 0 mm 22.35 m/s, 105° - -
1788180768 30° C 53% 1013.9 hPa 0 mm 22.35 m/s, 105° - -
1788180468 30° C 53% 1013.9 hPa 0 mm 22.35 m/s, 105° - -
1788180168 30° C 53% 1013.9 hPa 0 mm 22.35 m/s, 105° - -
1788179868 30° C 53% 1013.9 hPa 0 mm 22.35 m/s, 105° - -
1788179568 30° C 53% 1013.9 hPa 0 mm 22.35 m/s, 105° - -
1788179268 30.56° C 58% 1014.2 hPa 0 mm 17.88 m/s, 94° - -
1788178968 30.56° C 58% 1014.2 hPa 0 mm 17.88 m/s, 94° - -
1788178668 30.56° C 58% 1014.2 hPa 0 mm 17.88 m/s, 94° - -
1788178367 30.56° C 56% 1014.2 hPa 0 mm 19.22 m/s, 119° - -
1788178067 30.56° C 56% 1014.2 hPa 0 mm 19.22 m/s, 119° - -
1788177767 30.56° C 56% 1014.2 hPa 0 mm 19.22 m/s, 119° - -
1788177467 30.56° C 56% 1014.2 hPa 0 mm 19.22 m/s, 119° - -
1788177167 30.56° C 56% 1014.2 hPa 0 mm 19.22 m/s, 119° - -
1788176867 30.56° C 56% 1014.2 hPa 0 mm 19.22 m/s, 119° - -
1788176567 31.11° C 51% 1014.6 hPa 0 mm 9.83 m/s, 84° - -
1788176267 31.11° C 51% 1014.6 hPa 0 mm 9.83 m/s, 84° - -
1788175967 31.11° C 51% 1014.6 hPa 0 mm 9.83 m/s, 84° - -

* Rain latest hour (hover to see other rain measurements)
** Current wind speed in m/s (hover to see current wind gust speed)